GFSNGP_sfc_dewp_144.txt.gz
Dewpoint
25 27 28 28 24 24 23 25 22 22 25 28 27 26 23 24 27 26 25 25 24 22 24 24 25 27 27 29 29 30 30 30 30 31 32 32 32 33 33 34 34 33 32 31
22 26 26 23 26 25 26 27 28 27 26 30 32 28 26 26 25 24 25 25 26 24 24 24 25 26 26 27 28 30 29 28 29 29 29 29 29 31 30 32 32 31 31 30
21 26 25 20 24 26 27 28 28 26 28 29 27 23 22 22 22 23 23 23 25 23 23 24 25 25 25 26 27 28 28 28 28 28 26 25 25 26 25 28 28 28 28 27
26 25 18 24 32 30 27 28 29 28 28 28 25 24 23 22 22 21 21 22 25 25 23 25 24 24 24 26 26 28 27 28 28 27 25 24 23 23 23 24 24 23 24 25
26 26 26 28 28 28 26 25 29 27 28 25 25 25 22 22 22 22 22 22 23 24 24 26 24 24 23 25 25 26 26 27 27 30 25 24 23 22 22 22 22 22 22 23
25 25 21 26 30 30 27 20 29 27 27 26 27 26 23 22 22 22 22 21 22 22 24 24 23 23 23 24 24 25 26 26 26 28 25 24 23 22 21 21 20 20 20 22
24 24 25 28 29 28 19 19 28 27 26 25 23 24 23 23 22 21 21 21 23 22 22 23 22 21 20 23 24 25 24 25 25 25 29 25 23 20 20 19 20 20 20 21
25 23 21 30 28 24 25 29 28 28 27 26 26 25 23 22 22 22 22 22 22 21 22 21 21 20 20 23 25 23 21 22 22 23 25 26 22 21 19 19 19 19 19 19
27 24 30 32 30 30 29 27 27 27 27 27 26 23 23 23 23 22 20 18 21 19 21 19 19 19 19 22 23 20 20 20 20 21 22 25 21 19 18 18 18 18 17 17
27 28 28 29 28 28 28 27 27 27 27 24 23 23 23 22 23 21 16 14 15 17 15 15 18 19 20 21 22 21 21 19 20 20 20 20 23 20 17 17 17 17 17 16
27 28 28 28 28 27 26 24 23 22 23 22 21 19 20 20 20 20 19 19 17 14 15 15 17 17 19 21 22 20 21 20 19 19 19 18 18 22 16 16 17 16 18 16
24 28 27 27 27 27 24 23 22 21 20 21 19 18 17 17 17 18 19 18 17 17 16 15 16 16 17 19 23 19 19 19 18 18 17 17 16 15 19 17 17 17 17 16
28 30 29 29 28 27 26 25 24 21 20 19 18 17 17 17 17 18 18 16 15 14 15 10 7 10 15 17 20 18 14 18 17 16 15 14 14 13 11 12 16 16 16 16
31 29 27 28 26 28 26 24 24 21 21 19 18 17 17 16 16 16 16 16 14 14 15 14 15 11 12 13 14 13 8 13 9 7 5 5 6 7 1 5 9 10 12 13
30 30 28 28 26 25 23 21 20 20 19 18 18 17 17 16 15 15 15 15 14 14 14 14 13 10 14 16 17 16 16 11 8 10 11 11 11 10 11 10 11 10 8 9
30 28 27 27 26 23 22 21 20 20 18 17 17 17 17 16 16 15 14 14 13 12 12 4 11 7 12 11 12 14 13 13 13 14 12 13 13 13 12 12 11 10 9 8
28 27 27 26 25 23 22 22 21 20 19 17 17 17 16 15 15 16 15 14 10 5 5 7 2 1 5 5 7 7 9 12 11 15 14 13 11 11 11 10 10 9 10 8
29 28 28 27 25 24 24 22 22 21 18 17 17 15 13 12 13 12 10 8 6 2 1 0 -1 2 3 5 13 15 14 15 15 12 14 9 10 11 8 8 9 8 4 8
28 27 27 26 26 25 23 22 21 19 17 12 10 10 8 6 5 1 -6 -5 -5 -2 0 -3 11 5 7 10 14 15 12 9 11 12 11 7 3 7 3 0 1 -0 3 4
28 28 27 26 24 22 19 14 14 12 8 7 3 2 1 -6 -6 -6 -8 -1 0 4 -1 3 7 9 12 13 9 14 9 5 11 5 2 3 -5 -8 -6 -1 -1 -5 -10 -5
24 24 23 21 15 14 16 13 11 8 3 4 5 4 3 -1 -10 -7 -3 6 5 4 7 8 8 8 11 8 11 6 3 0 -2 -1 -2 -7 -10 -8 -9 -13 -10 -10 -12 -8
16 17 15 14 15 9 6 10 10 7 4 0 -8 -5 -4 -5 -9 -6 0 8 12 5 11 10 8 1 6 2 12 1 7 5 1 -1 -4 -8 -9 -11 -10 -13 -11 -12 -13 -11
16 16 14 13 14 12 7 7 5 7 4 2 1 1 4 8 8 5 5 9 12 6 12 8 2 -3 -2 -4 -3 -6 -3 -4 -5 -6 -7 -11 -10 -12 -11 -10 -11 -13 -13 -9
14 14 11 11 12 14 11 5 6 6 2 3 2 3 7 2 1 14 15 8 7 7 6 4 -3 -1 -4 -8 -4 -8 -8 -7 -7 -9 -8 -8 -13 -13 -10 -13 -10 -13 -12 -9
14 12 12 12 14 13 11 9 9 8 7 10 10 9 8 12 8 10 10 8 7 3 6 1 -1 -1 -9 -10 -8 -4 -6 -8 -5 -8 -7 -8 -8 -10 -9 -10 -12 -12 -12 -11
15 16 16 14 16 14 14 14 13 12 12 9 10 8 7 9 11 10 8 5 7 4 4 -1 -2 -3 -6 -6 -5 -2 -5 -1 -3 1 3 1 -4 -7 -8 -0 -4 -4 -5 -9
14 15 15 15 17 17 17 16 14 13 13 11 11 9 10 7 7 7 4 4 6 6 5 1 0 2 5 4 4 4 3 1 -3 -0 0 1 -1 -1 1 3 3 1 -2 -2

GFSNGP_sfc_dewp_147.txt.gz
Dewpoint
26 25 29 28 22 24 23 24 21 21 24 27 29 26 23 23 26 24 23 25 22 25 21 22 24 24 25 26 28 30 28 28 28 28 28 28 28 29 29 29 29 28 29 30
25 24 28 27 24 24 25 27 28 26 26 29 31 28 27 26 24 24 24 24 24 23 23 24 23 24 24 25 26 28 27 27 28 26 25 25 26 27 27 28 28 27 27 28
25 24 26 23 26 26 27 28 28 26 27 29 25 24 23 23 23 23 22 24 23 22 22 25 22 23 23 24 26 26 26 26 26 25 24 23 23 23 23 24 25 25 25 26
27 25 21 23 31 30 26 28 28 28 28 28 25 23 22 22 22 21 21 22 22 23 23 23 22 23 23 24 24 24 24 24 25 27 23 22 21 21 21 21 21 21 22 24
25 24 25 29 28 27 25 25 28 27 26 23 23 22 21 22 22 22 22 22 23 23 24 22 22 22 22 23 23 23 23 23 24 26 22 21 19 19 20 20 20 20 20 21
27 21 20 26 30 30 26 22 29 27 24 23 25 24 22 22 22 22 21 22 21 22 22 20 20 22 21 21 22 22 23 23 23 24 25 21 20 18 19 19 18 19 18 21
24 24 24 29 30 27 19 21 29 27 26 25 25 25 23 22 21 21 21 21 22 22 20 19 20 20 17 20 21 20 21 22 22 23 24 21 19 18 18 18 18 18 18 19
26 23 21 30 27 24 25 28 28 27 26 26 24 23 22 21 21 21 20 21 21 20 20 19 19 18 13 19 20 19 18 18 19 20 22 20 19 18 18 17 18 17 18 17
26 25 30 30 29 29 29 27 27 26 26 24 23 22 22 22 21 20 19 17 19 16 17 17 18 18 15 21 21 18 16 14 16 16 18 20 16 15 17 17 17 16 15 15
27 28 28 29 29 28 28 27 27 27 26 25 23 22 22 22 20 19 13 12 13 14 12 13 17 19 19 21 22 21 18 17 17 14 16 15 18 15 15 16 15 16 14 13
27 27 27 27 28 27 26 26 26 25 24 24 23 22 21 22 19 18 18 18 15 11 11 12 16 17 18 20 21 19 19 18 17 17 14 14 13 18 14 16 16 15 14 13
22 28 28 27 28 26 24 23 24 22 21 21 22 21 20 20 19 18 17 17 17 15 15 15 15 15 17 19 20 18 16 17 15 15 14 13 8 9 15 15 16 16 16 14
28 30 28 28 27 25 23 22 22 21 20 19 18 18 17 18 19 19 16 15 15 13 14 8 4 6 12 16 18 16 12 15 14 13 12 10 8 8 5 6 13 14 14 15
30 28 26 26 24 26 24 24 23 21 20 18 17 17 17 17 19 17 15 15 14 15 15 13 13 7 6 7 8 4 2 10 3 5 4 2 -0 2 0 3 4 6 10 11
29 29 28 28 26 24 24 21 20 19 19 18 18 17 17 16 16 16 16 14 12 14 14 13 11 7 11 15 17 13 14 7 3 4 7 9 10 8 7 6 7 6 6 6
28 28 26 25 23 22 21 21 19 19 18 17 17 17 16 16 15 15 15 14 13 11 12 4 10 5 9 9 10 11 9 11 11 10 8 8 9 9 10 9 8 6 5 4
27 26 25 24 22 21 21 21 20 18 17 17 17 17 16 15 15 14 13 13 10 4 4 5 0 -3 1 1 7 5 6 10 10 12 10 10 8 7 7 6 6 6 6 3
28 28 27 25 23 22 22 22 21 20 18 17 17 15 13 13 14 12 10 9 4 0 -0 -0 -3 -0 2 4 11 13 11 13 13 10 11 5 6 9 4 4 6 5 1 3
28 28 28 27 25 24 23 22 21 20 17 15 13 13 11 8 6 2 -6 -5 -5 -3 3 -4 8 5 5 8 13 13 10 8 9 9 8 4 -1 4 -1 -4 -3 -6 -1 0
28 27 27 26 24 24 21 17 17 15 11 11 5 4 2 -4 -2 -3 -9 0 3 4 -1 1 5 8 11 12 9 12 8 3 9 3 -1 1 -8 -11 -10 -4 -4 -9 -14 -11
25 24 22 21 16 13 17 15 14 11 4 6 8 6 5 -1 -5 -2 -6 7 4 4 5 7 9 7 11 8 10 5 0 -3 -4 -2 -4 -9 -14 -11 -12 -15 -14 -14 -14 -13
21 22 19 16 16 10 6 11 12 8 5 -1 -8 -3 -2 -3 -10 -8 -5 6 9 4 9 10 10 3 7 2 10 -1 5 3 -1 -4 -7 -11 -12 -14 -14 -16 -14 -15 -15 -17
19 18 16 15 15 13 5 7 4 8 6 3 0 -1 3 7 6 4 5 8 9 8 10 9 3 -2 -4 -6 -6 -7 -6 -6 -7 -7 -9 -14 -14 -15 -14 -12 -12 -15 -16 -13
14 14 12 12 12 13 11 6 6 5 0 2 1 -1 4 1 -2 10 11 7 4 8 6 6 -1 -1 -7 -10 -9 -11 -10 -10 -10 -12 -10 -11 -16 -17 -16 -14 -12 -14 -16 -13
15 12 12 12 14 13 11 8 8 7 6 8 8 7 6 11 7 7 10 10 8 5 6 1 1 -1 -12 -13 -12 -10 -7 -6 -6 -8 -5 -8 -6 -11 -12 -11 -9 -10 -10 -10
15 16 15 13 15 14 13 13 11 11 10 7 7 4 4 6 9 8 4 3 5 3 4 1 0 -3 -7 -7 -6 -6 -3 -0 -3 -4 -2 -0 -1 -2 -6 -4 -2 -2 -3 -2
16 15 15 15 17 16 16 15 13 12 11 8 7 5 7 3 3 4 1 -3 0 1 1 1 0 1 1 -0 -0 1 2 3 3 2 1 1 1 -0 -1 -0 2 4 4 3

GFSNGP_sfc_dewp_150.txt.gz
Dewpoint
26 25 28 30 27 26 27 25 21 23 22 27 29 29 25 24 25 24 24 25 21 22 18 20 20 21 24 24 26 27 26 26 26 25 25 24 24 25 25 25 25 25 24 25
25 27 27 29 28 26 25 26 27 26 26 29 31 28 26 26 25 24 24 24 24 22 22 22 22 22 23 23 24 25 24 24 25 24 23 22 22 23 23 24 24 23 23 24
25 26 31 27 28 29 26 29 28 25 27 30 28 26 26 25 24 23 23 23 23 22 22 20 21 22 22 23 24 23 24 23 24 25 21 20 19 20 20 22 22 22 22 23
28 27 20 23 31 30 29 29 29 28 29 29 26 24 23 23 22 21 21 22 22 22 21 21 21 22 22 23 22 22 22 22 23 24 19 19 18 18 18 19 18 18 20 22
26 26 25 28 28 28 26 26 28 28 26 23 22 21 21 22 22 21 21 23 22 23 20 20 21 21 21 22 21 21 21 21 22 23 18 18 18 17 18 18 16 17 17 19
28 23 21 26 31 29 27 24 29 27 24 22 23 22 21 22 22 21 21 21 21 21 19 19 19 20 19 19 20 19 20 21 21 22 18 17 17 17 17 17 15 15 15 17
26 26 25 28 30 28 23 23 28 26 25 23 24 25 23 22 21 21 21 21 21 20 18 18 19 17 18 19 17 17 18 20 20 20 21 15 16 16 16 15 15 15 15 15
26 24 21 30 26 24 27 28 28 27 26 26 24 22 21 20 20 21 20 19 19 17 17 18 18 15 18 18 16 16 14 14 16 16 18 17 15 15 16 15 14 14 15 14
27 26 30 30 28 29 29 27 27 26 26 24 22 21 20 20 19 20 19 17 16 14 16 17 17 16 18 19 19 16 13 11 11 12 13 13 11 12 15 15 14 12 12 12
26 28 29 29 28 28 28 27 26 26 24 23 22 21 21 20 19 18 13 10 11 13 11 13 17 18 18 20 21 20 16 13 13 9 11 9 11 10 13 14 14 12 11 10
26 28 28 27 27 27 27 27 26 25 24 23 22 22 21 19 18 17 17 17 13 10 10 11 16 17 18 19 19 17 17 16 16 15 9 9 7 12 10 14 15 13 12 9
25 29 28 28 28 27 26 26 25 25 24 23 22 22 21 19 18 17 17 18 15 15 15 15 15 15 16 18 18 16 15 14 14 14 11 9 5 6 13 14 15 15 15 15
27 30 28 28 27 25 25 24 24 23 23 22 21 21 20 18 18 18 16 16 14 13 14 8 3 5 11 15 17 15 10 14 11 11 10 6 2 3 0 4 11 12 13 13
29 27 26 26 24 24 24 24 24 20 20 20 19 19 19 18 19 16 15 15 14 14 13 9 11 6 4 4 5 2 -1 7 -1 -3 -5 -5 -6 -5 -8 -7 -1 2 7 9
28 28 27 26 25 24 22 21 20 19 18 18 18 17 18 18 17 16 15 13 13 14 14 13 11 7 9 15 17 12 14 6 1 1 3 5 6 5 4 3 2 -2 2 4
28 27 26 24 24 22 21 20 19 18 18 18 17 17 17 17 16 16 15 14 12 12 12 7 10 5 8 8 9 9 8 10 9 8 7 8 8 7 8 7 6 5 4 2
26 25 24 23 22 22 20 20 19 18 18 17 17 17 16 15 15 15 14 14 10 5 6 5 0 -5 -0 -0 6 5 5 8 9 11 9 9 7 7 7 5 4 4 0 -3
27 27 26 24 23 22 21 21 20 19 18 18 18 15 13 13 13 12 10 8 3 -2 -1 1 -2 -2 -1 1 9 11 10 11 12 8 9 4 5 8 4 3 4 3 1 3
28 27 26 24 24 23 22 21 20 19 17 15 13 13 11 6 6 2 0 -1 -4 -3 2 -1 9 6 3 5 14 12 9 8 9 8 7 2 -2 3 -2 -6 -4 -5 -1 2
27 27 27 25 24 24 21 17 17 15 12 12 7 6 4 -3 -3 -0 -1 4 7 4 -2 2 5 7 8 11 11 11 7 2 7 2 -3 0 -8 -12 -11 -5 -5 -8 -14 -8
25 24 23 22 18 15 19 17 15 13 7 9 10 8 8 4 -4 -3 -8 5 2 3 5 5 9 8 9 8 8 4 -1 -4 -5 -3 -3 -9 -14 -12 -13 -15 -14 -13 -13 -13
22 22 20 18 18 13 9 13 13 9 7 2 -4 -0 1 1 -5 -7 -6 6 7 2 8 9 10 5 6 3 9 -0 5 3 -1 -5 -8 -12 -13 -14 -14 -15 -10 -10 -13 -14
21 20 19 18 17 16 8 9 5 9 8 5 3 2 5 9 6 5 7 8 8 7 9 9 5 1 -3 -7 -6 -8 -6 -7 -8 -8 -9 -13 -12 -14 -13 -9 -8 -11 -12 -10
16 17 14 13 13 14 13 8 8 7 3 3 1 -0 4 0 -3 10 9 3 2 5 6 6 1 -0 -8 -11 -12 -11 -11 -11 -11 -12 -9 -12 -15 -15 -15 -11 -10 -6 -11 -11
16 13 13 13 15 14 13 10 9 8 7 9 9 6 5 9 6 6 7 6 6 3 4 -0 1 -3 -11 -13 -12 -11 -9 -9 -8 -13 -9 -8 -5 -8 -8 -10 -10 -7 -7 -9
16 16 14 14 16 15 14 13 12 12 11 8 8 4 4 6 8 6 2 1 4 4 3 -3 -5 -6 -8 -9 -10 -9 -7 -3 -3 -4 -5 -4 -3 -3 -4 -4 -6 -5 -5 -5
17 16 16 15 17 16 16 15 14 13 12 10 10 7 7 2 2 2 -1 -5 -5 -4 -4 -7 -6 -3 -4 -5 -5 -3 -1 1 1 4 3 2 0 -0 -0 -1 -3 -3 -3 -1

GFSNGP_sfc_dewp_153.txt.gz
Dewpoint
24 23 25 25 24 24 29 30 28 29 28 32 32 30 31 30 28 27 26 26 26 24 25 24 24 25 25 26 26 26 26 26 26 27 27 25 24 25 27 26 26 26 26 27
26 26 28 31 27 26 28 31 33 33 27 30 32 31 29 27 27 26 25 25 24 22 22 20 21 22 22 24 24 24 24 24 25 24 20 22 23 23 23 24 25 25 25 25
25 27 32 28 30 31 29 29 31 27 30 31 30 29 27 26 24 24 24 24 22 21 19 20 20 21 21 22 22 22 22 22 22 19 17 17 18 18 19 20 22 23 24 25
27 29 22 28 30 31 32 31 33 30 31 32 30 29 26 25 23 22 22 22 21 21 19 20 20 21 21 21 20 21 21 21 22 19 15 15 15 15 16 15 15 15 18 22
26 24 26 26 29 29 28 28 31 30 29 25 24 24 22 23 23 22 22 22 22 20 19 21 20 20 20 19 19 19 20 20 20 21 13 14 15 14 14 13 12 12 13 16
29 23 19 27 30 29 28 26 30 29 26 25 24 24 23 22 22 21 22 21 20 18 19 20 21 20 20 20 20 20 20 19 18 20 14 14 14 14 13 11 10 10 10 14
27 26 27 28 30 29 23 30 31 28 26 24 25 26 24 22 21 21 20 20 18 17 19 20 20 21 20 20 19 20 20 18 18 18 17 14 14 14 13 11 11 12 11 13
28 24 20 31 27 26 33 30 29 28 26 26 25 23 22 21 20 20 20 20 17 18 19 20 19 20 19 20 20 19 18 18 17 18 17 16 16 17 14 14 14 15 15 16
26 27 31 31 30 29 31 29 28 27 26 26 24 22 21 20 20 20 21 20 17 18 18 19 19 20 19 21 21 19 18 17 17 17 17 18 18 17 18 17 17 16 15 16
28 29 29 29 29 29 29 29 28 27 25 24 22 21 20 19 18 19 20 17 17 18 18 18 19 18 19 18 17 17 18 18 18 17 17 16 18 18 17 18 17 17 16 15
29 28 28 29 29 29 28 28 26 26 25 24 22 21 20 18 17 17 17 16 17 17 18 18 19 18 18 16 15 15 15 15 15 15 17 16 16 17 17 17 17 16 16 16
33 32 32 31 30 29 28 26 26 24 24 23 22 21 20 18 17 17 16 14 14 17 17 17 17 17 17 17 14 13 12 13 14 13 14 15 15 14 13 13 13 13 13 15
33 31 30 31 29 28 27 27 26 25 24 23 22 22 20 18 17 18 16 15 13 17 17 16 15 16 16 17 16 16 17 16 15 14 14 14 13 13 12 13 10 12 11 12
30 29 27 27 27 27 27 26 27 24 24 23 22 21 19 18 18 17 15 15 13 14 15 14 14 14 15 17 16 14 16 12 17 17 17 16 15 14 13 11 11 11 10 10
28 28 29 27 26 26 25 23 23 22 22 21 22 21 19 18 18 16 15 14 11 13 15 15 15 15 15 17 19 18 19 19 18 17 16 14 14 14 13 12 11 10 10 8
27 26 25 25 24 24 23 22 21 21 21 20 20 20 19 19 18 16 15 13 12 13 14 15 14 14 13 15 17 17 18 15 15 17 16 14 13 12 11 10 9 9 9 8
25 25 24 24 23 22 22 22 21 20 19 19 18 19 18 18 17 16 16 16 15 14 15 14 13 9 10 13 17 20 18 18 14 15 14 13 13 12 10 10 10 9 9 9
28 27 26 26 23 22 22 22 21 20 19 19 19 19 18 18 18 18 17 16 13 10 13 15 12 10 10 14 16 18 17 16 16 15 14 14 12 11 11 10 8 8 9 8
28 27 27 25 24 23 22 21 21 20 20 20 18 18 18 17 17 16 14 12 10 11 13 11 12 12 14 13 17 17 17 17 15 14 14 12 14 11 11 11 10 10 9 8
28 27 26 26 26 25 24 24 22 20 19 18 15 14 15 13 12 11 11 12 15 15 14 14 12 14 13 12 15 15 17 17 15 15 15 13 14 14 12 8 9 10 11 10
27 26 24 24 23 23 23 22 20 18 16 15 17 15 15 15 10 9 10 14 16 11 13 10 12 12 9 9 10 16 17 17 16 15 15 14 14 12 12 12 11 11 11 10
25 25 23 22 23 22 20 22 22 18 15 15 12 12 11 12 8 8 11 15 15 10 12 13 12 12 9 10 10 16 15 15 15 15 14 13 13 12 12 12 11 11 11 10
26 25 24 22 22 23 17 19 18 18 16 14 13 13 14 16 13 13 14 14 11 11 13 15 13 11 8 13 14 15 15 15 15 14 14 14 12 12 11 11 11 11 11 11
23 23 22 20 19 18 19 18 16 17 16 15 15 13 13 15 14 13 13 9 12 13 15 17 13 10 4 13 11 12 13 14 14 14 13 7 12 11 10 10 10 11 11 9
21 19 18 19 21 22 20 17 15 14 13 15 14 11 11 12 18 16 15 14 11 10 14 11 9 8 11 12 11 10 11 13 14 13 13 13 13 12 12 11 10 11 11 11
20 21 20 20 21 19 18 16 18 16 15 16 15 16 15 13 13 12 13 11 12 11 14 15 12 10 12 11 10 9 10 11 10 10 11 11 12 12 12 11 11 11 11 12
19 18 18 18 18 18 17 17 18 18 16 18 18 17 15 14 13 12 12 14 15 15 15 15 13 10 13 12 11 11 11 11 10 12 13 14 14 14 14 13 13 13 12 11

GFSNGP_sfc_dewp_156.txt.gz
Dewpoint
14 14 16 19 19 19 22 25 26 30 31 38 36 35 35 35 33 31 29 28 29 29 29 28 28 29 27 28 28 29 30 28 28 27 29 27 27 27 30 28 28 27 27 27
20 19 21 24 24 24 23 24 26 30 29 31 34 35 33 31 32 30 30 28 27 25 23 21 21 23 23 24 26 26 25 25 25 23 21 23 24 24 25 26 27 27 27 29
24 22 28 29 32 28 26 27 26 26 32 34 32 31 30 29 28 27 27 26 23 22 20 21 21 22 22 22 24 23 23 22 22 19 18 19 18 18 18 20 22 23 28 29
25 24 23 30 28 29 36 32 36 31 33 33 32 31 32 29 27 26 25 24 22 21 20 21 21 21 21 21 21 22 21 20 21 18 16 17 15 16 16 15 15 14 18 20
24 22 22 20 21 28 28 26 28 32 32 31 31 29 28 27 26 25 24 23 22 21 21 22 20 20 20 20 20 20 20 19 19 18 16 16 15 15 14 13 13 13 13 15
25 23 17 23 28 30 29 27 28 31 32 28 27 26 27 26 25 24 22 21 20 19 20 22 23 21 22 22 22 22 21 19 18 19 16 15 15 15 14 13 11 12 12 15
27 26 26 25 28 29 23 30 31 31 31 29 28 29 28 25 24 22 20 20 19 19 20 22 24 23 21 21 20 21 22 19 19 17 17 15 16 15 14 13 14 15 15 15
28 28 25 29 29 25 35 32 32 31 31 31 28 26 25 24 22 21 19 19 18 19 20 21 21 22 21 20 21 21 20 20 20 21 19 18 19 20 16 16 18 19 20 20
29 28 33 32 32 32 31 31 31 31 30 29 27 25 24 23 22 21 22 22 20 20 19 19 20 22 21 22 20 20 19 19 20 20 21 23 23 23 23 22 21 22 20 22
30 29 30 31 32 30 30 31 30 30 29 28 26 24 23 22 20 21 24 22 22 21 21 20 19 18 20 17 17 20 20 20 21 20 22 21 24 23 22 22 21 21 22 21
31 31 31 31 32 31 30 30 29 29 28 27 25 24 23 21 20 20 20 19 22 22 21 21 20 17 16 15 15 14 16 17 18 19 22 22 21 21 22 19 18 19 19 21
36 34 33 32 34 32 31 29 28 28 27 26 25 23 22 20 19 17 16 16 17 19 19 18 16 15 15 15 14 13 12 14 17 16 19 20 22 21 13 13 13 13 13 15
34 34 33 34 34 31 31 29 28 28 27 25 25 23 21 20 19 18 15 13 14 19 20 21 20 20 18 17 15 18 22 20 19 18 19 19 20 19 21 18 11 10 11 11
32 32 32 32 32 31 30 29 29 27 26 25 24 22 22 20 19 15 14 12 12 17 20 19 19 20 21 23 21 19 21 13 23 24 24 24 23 23 22 20 19 19 14 10
31 30 31 31 30 29 29 28 26 25 25 24 24 23 21 19 18 16 15 13 11 13 15 16 17 20 21 21 20 21 22 23 22 23 22 19 20 20 19 18 18 18 17 12
28 28 29 29 29 28 28 27 25 24 25 24 24 22 21 20 19 17 15 14 11 13 16 20 19 21 20 20 22 21 21 18 18 20 20 19 18 17 15 15 14 15 15 14
28 27 28 28 28 27 26 26 25 25 24 24 23 23 21 20 19 17 17 17 19 20 20 20 19 18 17 20 23 22 22 20 15 17 18 17 17 16 14 15 14 13 14 15
29 29 29 29 28 27 26 26 26 25 24 23 24 25 25 24 22 21 21 20 20 19 20 21 20 17 16 20 21 20 20 18 17 18 17 19 17 13 15 14 13 13 14 12
29 28 29 28 28 28 27 25 24 24 25 27 25 25 25 24 25 24 23 21 18 18 20 20 18 17 19 18 18 18 19 20 18 16 17 15 18 16 16 17 15 15 13 13
29 29 28 28 31 29 30 33 31 28 26 25 25 24 23 23 23 22 21 20 22 23 23 21 18 18 17 16 17 14 19 21 18 18 20 17 19 19 17 13 13 14 16 15
33 33 32 31 30 31 31 30 28 26 25 25 24 24 23 24 21 20 20 20 23 21 19 18 15 13 13 12 12 17 20 21 20 19 19 19 18 17 16 16 15 15 15 15
32 31 29 28 28 29 29 30 30 26 24 23 23 23 22 22 19 19 21 22 21 20 17 16 15 15 12 13 11 18 19 18 19 19 19 18 17 17 16 15 15 15 15 14
33 32 30 28 29 31 28 28 27 26 24 23 22 22 23 25 23 21 20 20 17 17 17 18 17 17 15 18 20 21 20 18 18 18 18 18 17 17 16 15 15 15 15 14
31 31 31 29 27 26 27 28 26 26 24 25 24 23 24 25 25 20 20 19 19 19 20 22 20 17 15 20 21 21 19 19 19 19 17 15 17 17 16 16 15 15 15 14
29 28 27 27 28 29 29 28 24 24 23 23 23 20 20 20 27 26 24 23 17 17 20 19 18 16 19 21 21 19 19 19 19 19 18 18 17 17 17 17 16 16 16 15
29 29 29 28 29 28 27 24 26 25 23 25 25 26 25 23 21 20 20 20 19 16 20 22 19 19 20 20 20 19 19 17 17 17 17 17 18 17 17 17 17 17 17 17
26 23 24 24 23 23 23 22 26 26 24 28 27 27 24 24 22 20 20 22 21 20 20 21 21 19 21 21 19 19 19 19 17 18 19 19 19 19 19 19 19 19 19 19

GFSNGP_sfc_dewp_159.txt.gz
Dewpoint
14 11 11 12 11 10 11 15 19 25 23 31 37 37 38 39 34 32 31 30 32 33 31 30 31 31 28 29 28 29 31 28 28 26 28 27 27 27 29 28 28 27 28 27
20 18 16 14 11 10 12 14 16 23 21 26 37 37 37 35 35 33 32 30 29 28 27 24 25 26 24 25 26 26 25 25 25 22 21 23 24 25 24 25 26 27 27 30
25 21 21 24 27 21 18 19 21 23 26 29 33 35 37 35 35 32 30 29 27 25 23 23 23 23 23 23 24 23 22 21 21 19 19 20 18 18 19 21 22 24 30 30
25 23 19 27 25 24 34 29 35 30 31 30 35 35 35 34 32 30 28 27 25 23 23 23 23 22 22 21 22 21 21 19 19 18 18 18 17 17 18 18 17 17 19 20
25 21 18 16 18 24 26 25 25 26 27 29 34 33 33 35 31 29 28 26 24 23 24 24 21 21 20 20 20 20 19 18 18 18 16 16 16 16 16 16 16 16 16 17
23 20 17 19 25 26 26 26 28 26 28 32 33 32 34 30 29 27 26 24 22 22 23 24 26 22 24 24 23 23 21 20 17 18 17 17 17 17 16 16 15 15 16 18
26 24 23 20 26 29 23 28 32 30 32 32 31 31 32 29 27 25 23 21 21 21 21 24 26 24 23 23 22 23 24 21 22 18 18 19 19 17 17 17 17 19 18 19
27 26 23 26 27 25 35 34 32 32 33 33 32 31 29 27 25 23 21 20 20 20 20 22 22 24 22 21 22 22 22 22 22 23 21 20 22 23 20 19 21 22 22 22
28 29 33 30 29 34 32 31 33 32 32 32 30 28 27 26 24 22 22 23 20 19 19 19 20 23 22 22 22 21 21 21 23 23 24 26 26 26 25 24 24 24 24 24
28 28 28 30 32 32 30 31 31 32 32 30 28 27 26 25 23 22 26 27 21 20 20 20 19 19 21 18 18 21 23 23 24 23 25 25 27 26 24 23 23 23 23 24
31 30 30 31 31 33 31 30 30 31 30 29 27 26 25 23 23 23 23 22 24 25 23 22 19 18 17 16 15 16 17 17 18 22 25 25 23 21 24 20 18 20 19 22
37 35 32 31 35 34 32 30 30 30 29 28 26 25 24 23 22 22 20 20 20 21 20 19 16 15 15 15 14 14 13 15 18 18 21 23 24 24 13 13 11 12 12 15
33 35 36 37 34 34 32 31 30 30 28 27 26 25 23 21 22 21 16 17 17 21 19 25 29 26 18 17 16 17 21 20 20 20 21 22 23 22 23 19 13 11 10 10
34 34 34 33 34 33 32 30 32 28 28 27 25 23 23 22 20 16 14 14 15 18 21 22 22 23 24 25 23 21 24 16 25 26 25 25 24 24 23 22 22 23 16 13
33 33 33 34 32 32 31 29 28 27 27 26 25 24 23 22 19 16 14 13 15 17 18 17 17 21 22 22 21 21 23 24 24 25 24 21 21 21 21 20 20 20 20 17
32 30 30 31 31 31 30 29 28 27 27 25 25 25 24 22 20 16 14 13 13 15 16 20 19 24 23 23 23 23 23 21 20 22 22 21 20 19 17 17 17 17 17 18
31 30 30 30 30 30 29 29 28 26 26 26 26 25 24 23 20 17 16 16 23 27 26 24 24 25 23 23 24 24 25 23 20 19 19 19 19 18 16 17 17 16 16 18
30 30 30 30 31 31 30 29 28 27 26 27 28 30 31 28 24 24 24 25 24 24 25 25 25 23 20 22 23 22 22 21 21 21 20 20 19 17 16 16 16 15 16 16
30 30 30 29 31 31 30 29 28 28 30 32 30 31 32 31 32 29 28 24 23 21 22 24 22 22 21 20 20 20 21 21 20 18 19 18 20 18 19 20 18 17 16 15
31 31 30 30 33 33 34 35 35 32 32 31 30 28 28 27 29 27 26 24 25 26 32 24 22 20 19 18 19 16 20 23 20 21 23 20 21 21 21 17 17 17 19 18
35 35 34 34 33 33 33 33 31 30 30 30 29 28 27 28 27 26 25 24 28 27 26 23 20 17 15 15 16 19 21 23 23 22 22 22 22 21 20 19 19 19 18 18
34 33 32 32 33 32 32 33 33 31 29 28 28 29 27 28 25 25 27 26 25 26 22 19 17 17 14 19 15 20 19 21 21 22 22 22 21 20 20 19 18 18 18 18
34 34 33 32 33 33 32 32 32 32 29 28 27 28 28 27 26 25 24 24 22 24 22 21 20 19 19 22 21 22 22 22 21 21 21 21 21 20 19 18 18 18 17 17
34 34 33 33 32 29 30 32 30 30 31 31 30 29 29 29 32 25 24 24 24 24 24 26 23 20 19 23 23 23 23 23 22 22 20 19 20 19 18 18 17 17 17 17
33 32 32 32 31 32 33 32 29 29 28 26 26 25 25 26 31 31 29 27 22 22 25 23 21 20 21 23 23 23 23 22 22 22 20 20 19 19 19 19 19 19 19 18
32 32 32 32 31 30 30 28 28 29 28 29 30 32 30 28 26 26 27 26 25 21 24 26 24 22 22 22 22 23 22 21 21 19 18 18 19 18 19 19 19 19 20 20
29 27 28 28 26 26 26 26 29 30 28 32 31 32 29 28 28 26 25 27 25 25 24 25 24 21 21 22 22 22 21 21 20 20 20 20 20 21 21 21 22 21 19 18

GFSNGP_sfc_dewp_162.txt.gz
Dewpoint
17 16 16 15 13 11 10 12 13 17 15 21 35 38 38 38 37 34 32 30 31 32 30 29 29 31 30 31 32 33 32 31 31 30 29 29 29 29 31 30 29 27 28 28
21 20 19 18 16 15 13 10 10 12 13 22 36 38 38 36 35 33 33 33 33 33 29 28 27 29 26 28 28 28 27 27 26 25 25 26 27 27 28 28 30 29 28 27
23 20 23 25 27 21 19 19 20 18 26 30 33 35 36 36 34 34 33 34 33 28 26 24 24 24 24 24 25 24 23 21 19 20 20 22 21 21 22 24 25 26 26 26
25 25 20 24 20 21 26 26 30 26 29 30 31 36 39 40 36 35 35 33 28 26 24 25 25 24 25 22 23 23 21 19 17 19 19 19 19 20 21 21 20 19 21 21
25 24 21 19 18 19 28 29 34 24 25 26 31 37 38 36 36 36 32 29 26 25 25 26 24 23 21 22 22 20 18 18 18 19 18 19 20 20 20 20 20 20 19 19
25 21 14 20 28 35 29 27 29 28 28 35 35 31 33 36 35 31 29 27 24 24 24 27 27 25 27 26 25 25 22 20 17 19 19 20 21 21 22 20 19 20 20 21
26 24 20 18 21 31 26 29 32 31 31 36 35 33 39 36 30 28 26 24 24 23 24 26 28 26 23 22 20 22 25 23 23 20 22 22 24 22 22 22 22 22 22 22
26 23 22 24 25 32 36 34 33 33 36 34 34 33 31 29 27 26 23 22 21 22 23 25 23 24 20 18 20 22 21 21 23 24 23 23 24 25 23 23 23 24 24 24
25 29 37 38 37 36 33 32 33 33 34 33 31 30 29 28 26 23 23 23 22 21 21 22 21 23 21 21 22 20 20 18 21 22 24 26 26 25 25 24 24 24 24 23
33 29 28 31 34 36 31 32 32 33 33 32 30 29 27 26 24 23 25 27 22 21 21 21 21 20 21 19 19 22 23 23 23 21 24 23 26 26 22 20 20 21 19 20
32 32 31 32 33 33 32 31 30 32 32 31 29 27 26 25 24 22 23 23 24 25 24 23 21 20 19 17 18 19 21 22 23 25 25 25 23 19 22 16 15 14 13 16
34 37 36 35 35 33 34 31 30 31 30 29 28 27 26 25 24 24 22 22 22 23 22 20 18 18 17 17 17 18 18 19 23 24 26 26 25 21 14 16 13 12 11 13
35 40 40 39 36 33 33 32 31 31 30 28 28 27 26 24 25 25 22 21 21 22 22 23 23 22 19 20 22 23 23 22 22 21 24 24 24 24 22 18 16 15 13 12
37 36 35 35 36 34 33 32 33 30 29 29 27 26 26 24 24 22 20 19 19 20 23 24 23 22 24 25 23 20 24 21 25 26 25 25 24 23 22 21 20 20 19 17
33 33 33 34 33 33 32 31 30 29 29 28 28 26 25 23 22 20 19 17 17 19 21 20 20 23 24 24 22 21 23 24 23 26 25 23 22 22 23 22 21 21 22 17
32 32 30 31 31 32 31 30 29 29 30 28 27 26 25 24 22 19 17 17 18 19 20 21 21 24 23 23 23 23 24 22 22 24 25 24 23 22 21 21 20 20 20 20
31 31 31 31 32 32 30 31 29 29 29 28 28 28 25 25 24 20 18 19 24 23 24 23 22 23 22 22 24 25 25 24 20 20 21 22 23 22 21 21 20 19 19 15
32 31 31 31 32 32 32 32 32 30 30 30 30 29 27 26 23 23 24 24 23 22 24 25 24 22 21 22 23 24 25 25 24 23 22 23 23 22 21 19 19 19 19 17
31 31 33 31 33 33 33 33 32 31 31 30 29 29 29 29 28 27 25 22 21 21 24 25 25 22 21 21 22 22 23 24 23 23 23 21 22 21 20 22 21 20 18 18
33 34 36 35 36 35 34 33 32 31 31 30 29 28 28 28 27 25 24 23 24 25 26 25 23 23 21 20 21 20 22 22 23 23 24 23 24 24 21 20 18 19 20 20
34 33 32 32 32 32 32 31 30 29 29 29 29 28 28 28 27 26 26 25 26 27 27 24 23 21 19 18 19 20 20 23 24 24 23 24 24 23 24 23 22 20 18 17
33 31 31 30 31 30 31 32 30 28 29 28 28 28 28 28 26 26 26 26 29 26 25 25 23 20 18 20 18 22 21 21 22 24 23 24 24 23 22 22 19 19 19 18
33 33 32 31 31 31 31 31 29 29 28 27 28 28 28 28 27 25 24 26 26 26 25 24 22 21 20 24 23 24 22 22 23 23 23 24 23 23 21 20 20 19 18 17
32 32 31 32 31 30 29 30 30 30 29 29 29 28 29 29 31 28 28 27 26 26 26 26 25 22 21 24 24 24 23 24 24 24 23 20 22 22 20 20 19 19 19 17
31 31 31 31 32 32 32 31 30 29 29 29 28 28 27 29 32 33 32 27 25 25 26 24 24 23 23 24 23 23 24 24 24 24 23 22 21 21 20 20 20 20 19 19
32 32 32 31 30 32 32 30 31 31 30 31 31 33 31 30 30 29 29 29 26 23 26 28 25 25 24 22 23 24 24 23 23 22 21 21 21 21 21 20 20 19 20 16
30 30 31 30 29 28 27 28 32 31 30 32 32 32 31 30 29 28 28 28 27 27 25 27 26 24 24 23 23 24 24 23 23 23 22 20 21 21 21 22 19 17 13 10